www.pogodaiklimat.ru

Погода и климат >> Архив погоды >> Россия >> Оренбургская область >> Илек


ПОГОДА в Илеке

  • Прогноз погоды в Илеке
  • Монитор погоды в Илеке

АРХИВ ПОГОДЫ в Илеке

Время (UTC), дата Ветер
(напр.,м/с)
 
Видим.   Явления Облачность Т
(С)
Тd
(С)
f
(%)
Тe
(С)
Тes
(С)
Комфортность P
(гПа)
Po
(гПа)
Тmin
(С)
Tmax
(С)
R
(мм)
R24
(мм)
S
(см)
21 12.07 Ю 2 10 км зарница 10/3 600 м
[Cb calv Ac lent Ci fib]
+25.5 +13.0 46 +27 +27 жарко 1001.2 993.3
00 13.07 В 2
{16}
10 км гроза без осадков {ливн. осадки} 10/4 600 м
[Cb calv Ac lent]
+24.3 +16.7 63 +28 +28 душно 998.9 991.0
03 13.07 Ю 2 10 км {гроза, ливн. осадки} 10/3 600 м
[Cb calv Ac lent Ci fib]
+23.8 +17.7 69 +28 +29 душно 999.6 991.7 +22.7 1
06 13.07 ЮЗ 4 10 км {гроза, ливн. осадки} 8/3 1000 м
[Cu med, cong Ac trans Ci fib]
+29.5 +17.9 50 +34 +38 очень
душно
1000.6 992.8
09 13.07 З 3 10 км 10/4 1000 м
[Cu med, cong Ac und Cs]
+29.9 +18.3 50 +35 +39 очень
душно
1001.9 994.1
12 13.07 СЗ 4 10 км 9/0
[Ac und Cs]
+29.6 +16.9 46 +33 +37 душно 1002.2 994.4
15 13.07 СЗ 4 10 км 6/4 1000 м
[Cu med, cong Ci fib]
+26.8 +16.4 53 +30 +31 душно 1003.2 995.3 +30.5
18 13.07 СЗ 3 10 км 10/3 600 м
[Cb calv Ac lent Ci fib]
+20.9 +15.2 70 +24 +24 комфорт 1005.3 997.3
21 13.07 СЗ 2 10 км {ливн. осадки} 8/3 600 м
[Cb calv Ac lent Cs]
+18.7 +14.8 78 +20 +20 1005.2 997.1
00 14.07 З 1 10 км {ливн. осадки} 8/0
[Ac lent Ci fib]
+17.2 +14.7 85 +18 +18 1006.3 998.2
03 14.07 СЗ 2 10 км 10/0
[Ac lent]
+18.7 +15.1 80 +20 +21 1007.7 999.6 +16.8 0.0
06 14.07 С 3 10 км 8/6 1000 м
[Cu med, cong Ci fib]
+22.4 +14.0 59 +26 +29 жарко 1007.6 999.6
09 14.07 С 3 10 км 6/0
[Ci fib]
+26.1 +13.0 44 +28 +40 жарко 1006.5 998.6
12 14.07 СВ 3 10 км 6/0
[Cs]
+28.1 +12.7 39 +30 +36 жарко 1006.3 998.4
15 14.07 СВ 2 10 км 10/0
[Ac lent]
+25.2 +13.1 47 +27 +27 жарко 1006.0 998.1 +28.7
18 14.07 З 1 4000 м слаб. ливневой дождь 10/4 600 м
[Cb calv Ac lent]
+19.8 +17.3 86 +24 +24 комфорт 1006.2 998.1
21 14.07 С 4 4000 м слаб. ливневой дождь 10/4 600 м
[Cb calv Ac lent]
+17.4 +15.3 87 +17 +17 1003.2 995.1
00 15.07 С 6-13
{13}
4000 м слаб. ливневой дождь 10/4 600 м
[Cb calv Ac lent]
+16.7 +15.4 92 +16 +16 999.8 991.7
03 15.07 З 5
{13}
4000 м слаб. ливневой дождь {гроза} 10/4 600 м
[Cb calv Ac lent]
+16.0 +14.9 93 +15 +15 1001.9 993.7 +16.0 19
06 15.07 З 4
{10}
10 км {ливн. осадки} 10/3 600 м
[Cb calv Ac lent]
+17.6 +15.0 85 +17 +19 1003.6 995.5
09 15.07 СЗ 6-10
{12}
10 км 8/4 1000 м
[Cb calv Ci fib]
+21.8 +13.4 59 +25 +28 комфорт 1005.4 997.4
12 15.07 СЗ 4
{10}
10 км 8/3 1000 м
[Cu med, cong Ci fib]
+24.6 +13.2 49 +27 +30 жарко 1006.6 998.7
15 15.07 СЗ 2 10 км 3/0
[Ci fib]
+23.5 +12.2 49 +25 +26 комфорт 1008.0 1000.0 +24.6 2
18 15.07 штиль 0 10 км 3/0
[Ci fib]
+17.9 +15.6 86 +18 +18 1009.5 1001.4
21 15.07 штиль 0 10 км ясно +15.2 +13.8 91 +15 +15 1010.6 1002.4
00 16.07 штиль 0 10 км ясно +13.5 +12.7 95 +13 +13 1011.8 1003.5
03 16.07 ЮЗ 1 10 км ясно +18.3 +14.5 79 +20 +23 1012.9 1004.7 +13.2
06 16.07 В 1 10 км 4/0
[Ci fib]
+24.3 +13.1 50 +26 +40 жарко 1013.3 1005.3
09 16.07 С 2 10 км 10/3 1000 м
[Cu hum Cs]
+26.9 +10.1 35 +27 +37 жарко 1013.1 1005.2
12 16.07 С 1 10 км 10/3 1000 м
[Cu hum Ac trans Cs]
+27.0 +10.1 35 +28 +31 жарко 1012.6 1004.7
15 16.07 СВ 1 10 км 10/0
[Ac As Ci fib]
+25.3 +12.7 46 +27 +28 жарко 1012.3 1004.3 +27.9
18 16.07 В 2 10 км 10/0
[Ac lent Ci fib]
+23.1 +11.8 49 +26 +26 жарко 1012.3 1004.3
21 16.07 В 2 10 км 10/0
[Ac lent Ci fib]
+21.9 +12.1 54 +24 +24 комфорт 1012.8 1004.8
00 17.07 В 2 10 км 10/0
[Ac lent Ci fib]
+21.5 +11.5 53 +24 +24 комфорт 1012.8 1004.8
03 17.07 В 1 10 км 10/3 600 м
[Cb calv Ac lent Ci fib]
+21.0 +12.6 59 +25 +26 комфорт 1012.8 1004.7 +20.5
06 17.07 В 2 4000 м слаб. ливневой дождь 10/4 600 м
[Cb calv Ac lent]
+20.2 +16.9 81 +24 +25 комфорт 1012.9 1004.8 +19.9
09 17.07 В 2 10 км {ливн. осадки} 10/0
[Ac lent]
+21.9 +15.6 67 +26 +29 душно 1012.0 1003.9
12 17.07 В 3 10 км {ливн. осадки} 9/4 1000 м
[Sc Ac lent]
+22.8 +14.7 60 +26 +28 жарко 1011.2 1003.1
15 17.07 В 4 10 км 8/4 1000 м
[Sc Ac und]
+23.5 +14.7 58 +26 +26 жарко 1009.6 1001.6 +24.2 0.0
18 17.07 В 3 10 км 8/0
[Ac trans]
+20.9 +14.8 68 +24 +24 комфорт 1008.7 1000.6
21 17.07 В 3 10 км 8/0
[Ac trans]
+20.4 +14.3 68 +23 +23 комфорт 1007.6 999.5
00 18.07 В 2 10 км 6/0
[Ac trans]
+19.5 +13.8 70 +22 +22 комфорт 1006.3 998.2
03 18.07 В 4 10 км 6/0
[Ac trans]
+21.3 +13.7 62 +24 +25 комфорт 1005.2 997.2 +19.5
06 18.07 Ю 4 10 км 4/0
[Ci fib]
+29.2 +10.9 32 +30 +37 жарко 1004.1 996.3
09 18.07 ЮЗ 4 10 км 6/3 1000 м
[Cu med, cong Ci fib]
+32.8 +12.8 30 +33 +40 жарко 1004.1 996.4
12 18.07 З 4 10 км 8/3 1000 м
[Cu med, cong Ci fib]
+32.9 +13.7 31 +34 +37 очень
жарко
1005.1 997.4
15 18.07 З 1 10 км 8/3 1000 м
[Cu med, cong Ci fib]
+30.3 +14.2 37 +32 +33 жарко 1005.8 998.0 +33.5
18 18.07 штиль 0 10 км 8/0
[Ac und]
+24.1 +17.4 66 +28 +28 душно 1006.7 998.7
21 18.07 СЗ 1 10 км 6/0
[Ac und]
+21.6 +16.6 73 +25 +25 комфорт 1007.3 999.2
00 19.07 штиль 0 10 км 9/5 1000 м
[Sc Ac und]
+20.6 +17.4 82 +24 +24 комфорт 1008.6 1000.5
03 19.07 СЗ 1 10 км 4/0
[Ac trans Cs]
+22.5 +17.9 75 +28 +30 душно 1008.9 1000.9 +19.9
06 19.07 С 2 10 км 6/0
[Ac As Ci fib]
+28.0 +17.3 52 +32 +40 душно 1008.6 1000.7
09 19.07 СЗ 4 10 км 10/0
[Ac trans Ci fib]
+30.2 +17.0 45 +34 +40 очень
душно
1007.8 1000.0
12 19.07 СЗ 4 10 км 10/0
[Ac trans Ci fib]
+30.5 +13.3 35 +32 +35 жарко 1008.0 1000.2
15 19.07 С 4
{11}
10 км 10/3 600 м
[Cb calv Ac lent Ci fib]
+26.9 +15.0 48 +30 +30 душно 1008.5 1000.6 +31.4
18 19.07 С 2 10 км 9/4 1000 м
[Sc Ac trans]
+24.6 +16.2 60 +28 +28 душно 1009.5 1001.5

 

Местоположение метеостанции Илек (Оренбургская область, Россия): широта 51.52 долгота 53.37 высота над уровнем моря 67 м.

В архиве по умолчанию представлена погода в Илеке за последнюю неделю. Архивные данные за месяц целиком и за предыдущие месяцы, начиная с января 2011 года, Вы можете получить, выбрав интересующий диапазон дат из раскрывающегося списка и нажав кнопку "Ввод!".


*Определитесь, кто Вы:
робот инопланетянин человек

Внимание! Время в таблицах - всемирное. Для получения местного времени необходимо прибавить поправку, которая равна 5 ч.

Смотрите также архив погоды в соседних городах и на ближайших метеорологических станциях:

Погода в Аксае (Западно-Казахстанская область, Казахстан) (46 км)
Погода в Новосергиевке (Оренбургская область, Россия) (65 км)
Погода в Чингирлау (Западно-Казахстанская область, Казахстан) (71 км)
Погода в Сорочинске (Оренбургская область, Россия) (103 км)
Погода в Оренбурге (Оренбургская область, Россия) (121 км)
Погода в Соль-Илецк (Оренбургская область, Россия) (122 км)
Погода в Анкаты (Западно-Казахстанская область, Казахстан) (123 км)
Погода в Первомайском (Оренбургская область, Россия) (126 км)
Погода в Татарской Каргале (Оренбургская область, Россия) (131 км)
Погода в Январцево (Западно-Казахстанская область, Казахстан) (147 км)

Пояснения к столбцам:

Ветер - указаны скорость ветра в м/с - средняя за 10 мин, порывы в срок и между сроками (в фигурных скобках) и направление, откуда дует ветер: С - северный, СВ - северо-восточный, В - восточный, ЮВ - юго-восточный, Ю - южный, ЮЗ - юго-западный, З - западный, СЗ - северо-западный.
Видимость - горизонтальная дальность видимости в метрах или километрах. При видимости от 1 до 10 км при отсутствии осадков обычно наблюдается дымка, при ухудшении видимости до 1 км и менее - туман. В сухую погоду видимость может ухудшаться дымом, пылью или мглою.
Явления - указаны атмосферные явления, наблюдавшиеся в срок или в последний час перед сроком; фигурными скобками обозначены явления, наблюдавшиеся между сроками (за 1-3 часа до срока); квадратными скобками обозначены град или гололедные отложения с указанием их диаметра в мм.
Облачность - указаны через наклонную черту общая и нижняя облачность в баллах и высота нижней границы облаков в метрах; квадратными скобками обозначены формы облаков: Ci - перистые, Cs - перисто-слоистые, Cc - перисто-кучевые, Ac - высококучевые, As - высокослоистые, Sc - слоисто-кучевые, Ns - слоисто-дождевые, Cu - кучевые, Cb - кучево-дождевые. Подробнее классификацию облаков см. в Атласе облаков (PDF).
T - Температура воздуха - температура, измеренная на высоте 2 м над землей.
Td - Температура точки росы - температура, при понижении до которой содержащийся в воздухе водяной пар достигнет насыщения.
f - Относительная влажность воздуха - влажноcть воздуха, измеренная на высоте 2 м над землей.
Te - Эффективная температура - температура, которую ощущает одетый по сезону человек в тени. Характеристика душности погоды. При расчете учитывается влияние влажности воздуха и скорости ветра на теплоощущения человека.
Tes - Эффективная температура на солнце - температура, которую ощущает человек, с поправкой на солнечный нагрев. Характеристика знойности погоды. Зависит от высоты солнца над горизонтом, облачности и скорости ветра. Ночью, в пасмурную погоду, а также при ветре 12 м/с и более поправка равна нулю.
P - Атмосферное давление - приведенное к уровню моря атмосферное давление.
Po - Атмосферное давление - измеренное на уровне метеостанции атмосферное давление.
Tmin - Минимальная температура - минимум температуры воздуха на высоте 2 м над землей.
Tmax - Максимальная температура - максимум температуры воздуха на высоте 2 м над землей.
R - Количество осадков - Количество выпавших осадков за период времени, мм. При наведении курсора мыши на число - период времени, за который выпало указанное количество осадков.
R24 - Количество осадков - Количество выпавших осадков за 24 часа, мм.
S - Снежный покров - Высота снежного покрова, см. При наведении курсора мыши на число - состояние снежного покрова и степень покрытия местности в баллах.